Tracking 20712 objects as of 27-May-2020
HD Live streaming from Space Station
objects crossing your sky now

DIRECTV 1R

Track DIRECTV 1R now!
DIRECTV 1R is classified as:


NORAD ID: 25937
Int'l Code: 1999-056A
Perigee: 36,151.3 km
Apogee: 36,179.3 km
Inclination: 5.9 °
Period: 1,455.1 minutes
Semi major axis: 42536 km
RCS: 3.9811 m2 (large)
Launch date: October 10, 1999
Source: United States (US)
Launch site: SEA LAUNCH (SEAL)

First commercial launch by Sea Launch consortium (American, Russian, Ukrainian companies); 16 Ku-band; video channels directly to home-based dishes; anticipated 50 million homes in North America.
aabbcc
Your satellite tracking list
Your tracking list is empty




NASA's NSSDC Master Catalog

Two Line Element Set (TLE):
1 25937U 99056A   20147.95810889 -.00000015 +00000-0 +00000-0 0  9994
2 25937 005.9331 064.5217 0003286 300.5855 255.2632 00.98960767075299
Source of the keplerian elements: AFSPC